This is the latest recevied weather packets stored in our database for station/object KD8OZS. If no packets are shown the sender has not sent any weather packets the latest 10 day(s).
| Time | Temp. | Humidity | Pressure | Rain* | Wind** | Luminosity | Snow |
|---|---|---|---|---|---|---|---|
| 1777910309 | 19.44° C | 59% | 1000.7 hPa | 0 mm | - | 97 W/m² | - |
| 1777910006 | 18.89° C | 59% | 1000.5 hPa | 0 mm | - | 138 W/m² | - |
| 1777909703 | 18.33° C | 57% | 1000.7 hPa | 0 mm | - | 230 W/m² | - |
| 1777909400 | 18.33° C | 56% | 1000.9 hPa | 0 mm | - | 355 W/m² | - |
| 1777909098 | 18.33° C | 57% | 1000.9 hPa | 0 mm | - | 205 W/m² | - |
| 1777908796 | 18.89° C | 57% | 1000.9 hPa | 0 mm | - | 115 W/m² | - |
| 1777908492 | 18.33° C | 56% | 1000.6 hPa | 0 mm | - | 139 W/m² | - |
| 1777908189 | 18.33° C | 59% | 1000.5 hPa | 0 mm | - | 211 W/m² | - |
| 1777907885 | 18.33° C | 58% | 1000.6 hPa | 0 mm | - | 140 W/m² | - |
| 1777907580 | 17.78° C | 59% | 1000.4 hPa | 0 mm | - | 609 W/m² | - |
| 1777907276 | 18.33° C | 56% | 1001 hPa | 0 mm | - | 714 W/m² | - |
| 1777906973 | 17.78° C | 59% | 1000.9 hPa | 0 mm | - | 175 W/m² | - |
| 1777906671 | 17.78° C | 58% | 1001 hPa | 0 mm | - | 120 W/m² | - |
| 1777906367 | 17.22° C | 58% | 1001.2 hPa | 0 mm | - | 462 W/m² | - |
| 1777906064 | 17.22° C | 57% | 1001 hPa | 0 mm | - | 439 W/m² | - |
| 1777905760 | 17.78° C | 57% | 1001.2 hPa | 0 mm | - | 739 W/m² | - |
| 1777905457 | 17.78° C | 56% | 1001.1 hPa | 0 mm | - | 753 W/m² | - |
| 1777905155 | 17.22° C | 58% | 1001.1 hPa | 0 mm | - | 605 W/m² | - |
| 1777904852 | 17.22° C | 59% | 1001.1 hPa | 0 mm | - | 261 W/m² | - |
| 1777904549 | 17.22° C | 59% | 1001 hPa | 0 mm | - | 286 W/m² | - |
| 1777904246 | 16.67° C | 57% | 1001.1 hPa | 0 mm | - | 758 W/m² | - |
| 1777903943 | 16.11° C | 58% | 1001.1 hPa | 0 mm | - | 743 W/m² | - |
| 1777903640 | 16.11° C | 58% | 1001.1 hPa | 0 mm | - | 710 W/m² | - |
| 1777903335 | 16.11° C | 58% | 1001.1 hPa | 0 mm | - | 647 W/m² | - |
| 1777903032 | 16.11° C | 59% | 1001.4 hPa | 0 mm | - | 691 W/m² | - |
* Rain latest hour (hover to see other rain measurements)
** Current wind speed in m/s (hover to see current wind gust speed)